OBJECT X, 43779

Orbit data source: Space-Track

You're viewing an Uncataloged Satellite

Recently launched and/or uncataloged satellites may have evolving metadata. Metadata may include but not limited to: Owner, Maufacturer, Bus, Motor, and Mission.

OBJECT X, 43779 is a satellite in SSO that was launched on Mon, 03 Dec 2018 UTC via an FALCON 9 launch vehicle from the Air Force Western Test Range (AFWTR). Unknown objects in Earth's orbit typically refer to objects detected orbiting the Earth but have not yet been identified or cataloged. These objects could be anything from previously untracked satellites, spent rocket stages, debris from satellite collisions, or even natural meteoroids temporarily captured by Earth's gravity.

Loading next visibility...
OBJECT X details
Identifier
43779, 2018-099X
Orbit
SSO
Last TLE update7 hours ago
Origin
Flag of TBDRAAF (TBD)
ManufacturerU. NSW
MissionNon-operational Defense Imaging
Bus & MotorCUBESAT 3U, Unknown motor
Mass5 kg wet, 5 kg dry
Launch date (UTC)
2018-12-03 (6 years ago)
Launch vehicle
FALCON 9
Launch site
Air Force Western Test Range (AFWTR)
Object typeUnknown
Shape & HBRBox + 1 Pan, 0.3 m
Radar Cross Section0.035 m², Small (<0.1 m²)

Expand to show TLE details & history

TLE from 7 hours ago
0 OBJECT X
1 43779U 18099X   24348.08462090  .00004708  00000-0  35289-3 0  9996
2 43779  97.5219  36.8161 0015484 113.7851 246.5000 15.03055578329211
Epoch: 2024-12-13T02:01Z
Definitive object data (Epoch: 2024-12-13T02:01:51.245Z)
Latitude-0.00005°
Longitude-75.90309°
Altitude564.842 km
Speed7.576 km/s
True Right ascension02h 27m 15s
True Declination0° 00' 00"
Sunlit
Object was in full shadow at TLE epoch
Visualization TLE readout
Latitude-53.66028°
Longitude94.11432°
Altitude583.918 km
Speed7.564 km/s
Apparent Right ascension17h 12m 32s
Apparent Declination-56° 59' 54"
Sunlit
Object is in daylight
Visualization observer readout
Local Sidereal Time07:57:18
Azimuth136.669° SSE
Elevation-58.484°
Doppler factor1
Orbital elements
Apogee altitude565.209 km
Perigee altitude543.74 km
Semi-major axis6,932.611 km
Eccentricity0.0015484
Inclination97.5219°
RAAN36.8161°
Arg. of periapsis113.7851°
True anomaly246.33741°
Mean anomaly246.5°
Eccentric anomaly246.41869°
Mean motion3.76009 °/min
BSTAR0.00035289
Orbital period95.74 mins
Loading maneuver chart data...
Loading historical data...
Loading historical data...
Loading historical data...
Loading historical data...
Loading historical data...
Loading historical data...
Loading historical data...

OBJECT X Visibility forecast

Observer location: undefined°, undefined

Span
Click to sort rows by Start time (UTC) header in descending order
Start Az.
Max El. time (UTC)
Max El. Az.
Max El.
End time (UTC)
End Az.
4 mins2024-12-13 15:24:32.053Z62.101° ENE2024-12-13 15:26:32.053Z98.531° ESE16.785°2024-12-13 15:28:32.053Z131.914° SE
5 mins2024-12-13 16:59:32.053Z331.36° NNW2024-12-13 17:01:32.053Z278.915° WNW26.709°2024-12-13 17:04:32.053Z227.539° WSW
6 mins2024-12-14 03:43:32.053Z182.146° SSW2024-12-14 03:46:32.053Z282.073° WNW40.773°2024-12-14 03:49:32.053Z338.918° N
|